Location: Dumpton Point
(51.3500°N, 1.4433°E)
Time: 23:02:24
(UTC+00:00)

Vanguard 1 - Pass Details

Date: 03 October 2022
Orbit: 650 x 3831 km, 34.2° (Epoch: 03 December)

Event Time Altitude Azimuth Distance (km) Brightness Sun altitude
Rises 16:02:29 0° 252° (WSW) 6,538 16.4 12.1°
Reaches altitude 10° 16:08:12 10° 243° (WSW) 4,947 16.7 11.2°
Maximum altitude 16:18:07 28° 192° (SSW) 2,671 12.8 9.8°
Drops below altitude 10° 16:24:25 10° 137° (SE) 3,053 12.4 8.8°
Sets 16:27:01 0° 124° (SE) 3,715 12.7 8.4°
